Weather Roundup
Issued by NWS

Home | Current Version | Previous Version | Graphics & Text | Print | Product List | Glossary Off
Versions: 1 2 3 4 5 6 7 8 9 10 11 12 13 14 15 16 17 18 19 20 21 22 23 24 25 26 27 28 29 30 31 32 33 34 35 36 37 38 39 40 41 42 43 44 45 46 47 48 49 50

000
NZUS93 KARX 211759
HRRWXR

CURRENT HOURLY OBSERVATIONS ACROSS
MUCH OF THE UPPER MISSISSIPPI VALLEY
NATIONAL WEATHER SERVICE LA CROSSE WI
1200 PM CST SUN JAN 21 2018


...SOUTHEAST MINNESOTA...


CITY           SKY/WX    TMP DP  RH WIND       PRES   REMARKS
ROCHESTER      FAIR      36  32  85 NE7       29.91F FOG     WCI  30
ROCHESTER/MAYO FAIR      37  31  79 CALM      29.92F
WINONA         FAIR      32  32 100 CALM      29.93F
AUSTIN         NOT AVBL
ALBERT LEA     FAIR      36  30  80 E7        29.91F FOG     WCI  30
DODGE CENTER   FAIR      34  30  86 NE5       29.93F WCI  30
PRESTON        FAIR      36  31  82 N6        29.91F WCI  31
OWATONNA       FAIR      37  32  81 E8        29.92F WCI  31
FARIBAULT      FAIR      39  30  70 NE3       29.93F
$$

...ELSEWHERE IN MINNESOTA...


CITY           SKY/WX    TMP DP  RH WIND       PRES   REMARKS
MINNEAPOLIS    CLOUDY    38  31  76 N6        29.96F WCI  33
INTNL FALLS    CLOUDY    23  20  88 CALM      30.03S FOG
DULUTH         FAIR      32  26  78 CALM      29.96F
RED WING       CLOUDY    37  28  70 CALM      29.94F
REDWOOD FALLS  CLOUDY    38  30  73 NE7       29.97S WCI  33
MANKATO        PTSUNNY   40  31  70 NE7       29.94F
WORTHINGTON    CLOUDY    37  31  78 N13       29.93F WCI  29
FAIRMONT       CLOUDY    36  31  82 NE7       29.93F WCI  30
$$

...SOUTHWEST WISCONSIN...


CITY           SKY/WX    TMP DP  RH WIND       PRES   REMARKS
LA CROSSE      FOG       30  29  96 CALM      29.94F VSB 1/4
PRAIRIE DU CHI CLOUDY    31  30  96 CALM      29.94F FOG
BOSCOBEL       CLOUDY    32  31  96 NE5       29.94F FOG     WCI  27
LONE ROCK      FOG       32  32 100 CALM      29.94F VSB 1/2
PLATTEVILLE    FAIR      37  37 100 E9        29.92F WCI  30
FORT MC COY    FAIR      37  32  82 CALM      29.95F
CAMP DOUGLAS   FAIR      41  33  73 CALM      29.92F
MAUSTON-NEW LI FAIR      39  33  78 CALM      29.94F
VIROQUA        FAIR      41  37  86 E3        29.91F
WIS DELLS      FAIR      38  36  90 CALM      29.93F
$$

...ELSEWHERE IN WISCONSIN...


CITY           SKY/WX    TMP DP  RH WIND       PRES   REMARKS
MILWAUKEE      CLOUDY    38  36  92 CALM      29.95F FOG
MADISON        CLOUDY    38  35  89 CALM      29.94F FOG
GREEN BAY      FAIR      39  33  79 CALM      29.97F HAZE
EAU CLAIRE     NOT AVBL
BLACK RVR FLS  FAIR      43  31  62 NE5       29.95F
MEDFORD        CLOUDY    37  30  75 E3        29.94F
WAUSAU         CLOUDY    38  31  76 CALM      29.93F
WIS RAPIDS     FAIR      43  31  62 CALM      29.95F
MARSHFIELD     CLOUDY    39  31  72 SE5       29.92F
RICE LAKE      FAIR      35  30  82 CALM      29.98F
$$

...NORTHEAST IOWA...


CITY           SKY/WX    TMP DP  RH WIND       PRES   REMARKS
WATERLOO       CLOUDY    38  37  97 E10       29.87F FOG     WCI  31
DUBUQUE        CLOUDY    36  33  89 NE8       29.89F FOG     WCI  30
DECORAH        PTSUNNY   32  32 100 NE3       29.89F FOG
MASON CITY     CLOUDY    36  32  85 NE9       29.89F FOG     WCI  29
CHARLES CITY   CLOUDY    36  36 100 NE8       29.88F FOG     WCI  29
OELWEIN        CLOUDY    37  37 100 NE9       29.89F FOG     WCI  31
$$

...ELSEWHERE IN IOWA...


CITY           SKY/WX    TMP DP  RH WIND       PRES   REMARKS
DES MOINES     DRIZZLE   41  39  93 NE7       29.81F FOG
IOWA CITY      CLOUDY    43  39  86 E6        29.88F FOG
FORT DODGE     CLOUDY    35  34  96 NE7       29.85F FOG     WCI  29
MARSHALLTOWN   CLOUDY    39  39 100 E9        29.84F FOG     WCI  33
CEDAR RAPIDS   CLOUDY    43  39  86 E12       29.85F FOG
$$

...NORTHERN ILLINOIS...


CITY           SKY/WX    TMP DP  RH WIND       PRES   REMARKS
CHICAGO-OHARE  FOG       43  40  89 SE5       29.93F VSB 1
CHICAGO-MIDWAY CLOUDY    44  42  93 S5        29.94F FOG
MOLINE         FOG       43  42  97 E5        29.87F VSB 3/4
ROCKFORD       CLOUDY    40  37  89 E5        29.94F FOG
PEORIA         CLOUDY    48  45  89 SE5       29.90F FOG
$$

NOTE: "FAIR" INDICATES FEW OR NO CLOUDS BELOW 12,000 FEET WITH NO
SIGNIFICANT WEATHER AND/OR OBSTRUCTIONS TO VISIBILITY. WIND
SPEEDS ARE IN MILES-PER-HOUR.




USA.gov is the U.S. government's official web portal to all federal, state and local government web resources and services.